Location: ??????????
(54.4061°N, 22.6114°E)
Time: 13:05:03
(UTC+00:00)

STARLINK-27 - Pass Details

Date: 23 October 2019
Orbit: 548 x 551 km, 53.0° (Epoch: 14 November)

Event Time Altitude Azimuth Distance (km) Brightness Sun altitude
Rises 16:08:16 0° 266° (W) 2,717 9.6 -8.5°
Reaches altitude 10° 16:10:30 10° 265° (W) 1,824 8.0 -8.8°
Maximum altitude 16:14:38 75° 181° (S) 574 3.7 -9.4°
Enters shadow 16:18:16 13° 96° (E) 1,629 5.4 -9.9°
